| time (UTC) | temp F | wind direction | speed MPH | gust MPH | rain 1hr in | rain 24hr in | rain mn in | humidity % | barometer mb |
| 20260508213549 | 76 | 180 | 4.0 | 10.0 | 0.00 | 0.01 | 0.01 | 70 | 1007.8 |
| 20260508212549 | 76 | 158 | 4.0 | 8.0 | 0.00 | 0.01 | 0.01 | 69 | 1007.7 |
| 20260508211549 | 76 | 135 | 4.0 | 9.0 | 0.00 | 0.01 | 0.01 | 71 | 1008.1 |
| 20260508210549 | 73 | 135 | 2.0 | 7.0 | 0.00 | 0.01 | 0.01 | 74 | 1008.6 |
| 20260508205549 | 73 | 203 | 2.0 | 6.0 | 0.00 | 0.01 | 0.01 | 75 | 1009.1 |
| 20260508204549 | 74 | 203 | 2.0 | 6.0 | 0.00 | 0.01 | 0.01 | 72 | 1009.4 |
| 20260508203549 | 74 | 225 | 4.0 | 10.0 | 0.00 | 0.01 | 0.01 | 69 | 1009.8 |
| 20260508202549 | 74 | 203 | 2.0 | 5.0 | 0.00 | 0.01 | 0.01 | 69 | 1009.9 |
| 20260508201549 | 75 | 203 | 3.0 | 7.0 | 0.00 | 0.01 | 0.01 | 68 | 1009.9 |
| 20260508200549 | 76 | 225 | 2.0 | 6.0 | 0.00 | 0.01 | 0.01 | 68 | 1009.9 |
| 20260508195549 | 76 | 158 | 4.0 | 8.0 | 0.00 | 0.01 | 0.01 | 67 | 1009.9 |
| 20260508194548 | 77 | 180 | 4.0 | 7.0 | 0.00 | 0.01 | 0.01 | 66 | 1009.9 |
| 20260508193549 | 77 | 203 | 4.0 | 8.0 | 0.00 | 0.01 | 0.01 | 66 | 1009.9 |
| 20260508192548 | 77 | 158 | 4.0 | 8.0 | 0.00 | 0.01 | 0.01 | 64 | 1010.0 |
| 20260508191548 | 77 | 158 | 5.0 | 10.0 | 0.00 | 0.01 | 0.01 | 65 | 1010.0 |
| 20260508190548 | 77 | 203 | 4.0 | 9.0 | 0.00 | 0.01 | 0.01 | 65 | 1010.1 |
| 20260508185549 | 78 | 180 | 3.0 | 9.0 | 0.00 | 0.01 | 0.01 | 62 | 1010.3 |
| 20260508184548 | 79 | 135 | 4.0 | 9.0 | 0.00 | 0.01 | 0.01 | 64 | 1010.2 |
| 20260508183549 | 78 | 203 | 3.0 | 9.0 | 0.00 | 0.01 | 0.01 | 63 | 1010.2 |
| 20260508182549 | 78 | 203 | 3.0 | 8.0 | 0.00 | 0.01 | 0.01 | 62 | 1010.6 |
| 20260508181548 | 77 | 158 | 3.0 | 9.0 | 0.00 | 0.01 | 0.01 | 63 | 1010.8 |
| 20260508180609 | 77 | 248 | 2.0 | 5.0 | 0.00 | 0.01 | 0.01 | 63 | 1010.9 |
| 20260508175608 | 77 | 158 | 3.0 | 8.0 | 0.00 | 0.01 | 0.01 | 62 | 1011.1 |
| 20260508174549 | 77 | 113 | 4.0 | 10.0 | 0.00 | 0.01 | 0.01 | 64 | 1011.4 |
| 20260508173549 | 76 | 158 | 3.0 | 9.0 | 0.00 | 0.01 | 0.01 | 64 | 1011.3 |
| 20260508172549 | 76 | 113 | 4.0 | 10.0 | 0.00 | 0.01 | 0.01 | 64 | 1011.4 |
| 20260508171608 | 75 | 180 | 3.0 | 6.0 | 0.00 | 0.01 | 0.01 | 63 | 1011.7 |
| 20260508170549 | 73 | 203 | 4.0 | 10.0 | 0.00 | 0.01 | 0.01 | 65 | 1011.9 |
| 20260508165549 | 73 | 158 | 4.0 | 10.0 | 0.00 | 0.01 | 0.01 | 65 | 1012.3 |
| 20260508164549 | 73 | 158 | 3.0 | 10.0 | 0.00 | 0.01 | 0.01 | 66 | 1012.5 |
| 20260508163548 | 73 | 180 | 4.0 | 12.0 | 0.00 | 0.01 | 0.01 | 65 | 1012.7 |
| 20260508162548 | 72 | 203 | 3.0 | 12.0 | 0.00 | 0.01 | 0.01 | 67 | 1012.8 |
| 20260508161548 | 72 | 180 | 4.0 | 9.0 | 0.00 | 0.01 | 0.01 | 66 | 1013.0 |
| 20260508160549 | 72 | 135 | 4.0 | 12.0 | 0.00 | 0.01 | 0.01 | 67 | 1013.0 |
| 20260508155548 | 71 | 135 | 5.0 | 10.0 | 0.00 | 0.01 | 0.01 | 67 | 1013.0 |
| 20260508154548 | 71 | 135 | 5.0 | 10.0 | 0.00 | 0.01 | 0.01 | 67 | 1013.3 |
| 20260508153608 | 69 | 158 | 4.0 | 9.0 | 0.00 | 0.01 | 0.01 | 69 | 1013.4 |
| 20260508152548 | 68 | 135 | 4.0 | 8.0 | 0.00 | 0.01 | 0.01 | 70 | 1013.4 |
| 20260508151548 | 68 | 135 | 4.0 | 8.0 | 0.00 | 0.01 | 0.01 | 70 | 1013.5 |
| 20260508150548 | 67 | 135 | 3.0 | 7.0 | 0.00 | 0.01 | 0.01 | 70 | 1013.5 |
| 20260508145548 | 67 | 113 | 5.0 | 8.0 | 0.00 | 0.01 | 0.01 | 70 | 1013.3 |
| 20260508144548 | 68 | 135 | 5.0 | 9.0 | 0.00 | 0.01 | 0.01 | 69 | 1013.3 |
| 20260508143548 | 67 | 180 | 4.0 | 9.0 | 0.00 | 0.01 | 0.01 | 71 | 1013.4 |
| 20260508142609 | 67 | 135 | 4.0 | 10.0 | 0.00 | 0.01 | 0.01 | 71 | 1013.8 |
| 20260508141548 | 68 | 158 | 4.0 | 11.0 | 0.00 | 0.01 | 0.01 | 71 | 1013.8 |
| 20260508140629 | 67 | 135 | 3.0 | 7.0 | 0.00 | 0.01 | 0.01 | 73 | 1013.8 |
| 20260508135548 | 66 | 158 | 3.0 | 7.0 | 0.00 | 0.01 | 0.01 | 77 | 1013.8 |
| 20260508134549 | 65 | 113 | 3.0 | 6.0 | 0.00 | 0.01 | 0.01 | 79 | 1013.8 |
| 20260508133548 | 64 | 113 | 2.0 | 6.0 | 0.00 | 0.01 | 0.01 | 80 | 1013.7 |
| 20260508132548 | 64 | 113 | 3.0 | 7.0 | 0.00 | 0.01 | 0.01 | 80 | 1013.7 |
| 20260508131548 | 63 | 135 | 2.0 | 5.0 | 0.00 | 0.01 | 0.01 | 81 | 1013.8 |
| 20260508130629 | 63 | 113 | 3.0 | 5.0 | 0.00 | 0.01 | 0.01 | 81 | 1013.9 |
| 20260508125548 | 63 | 135 | 1.0 | 3.0 | 0.00 | 0.01 | 0.01 | 83 | 1013.9 |
| 20260508124548 | 62 | 135 | 2.0 | 3.0 | 0.00 | 0.01 | 0.01 | 84 | 1013.7 |
| 20260508123548 | 62 | 0.0 | 0.0 | 0.00 | 0.01 | 0.01 | 85 | 1014.3 | |
| 20260508122548 | 62 | 0.0 | 0.0 | 0.00 | 0.01 | 0.01 | 85 | 1013.9 | |
| 20260508121549 | 62 | 0.0 | 0.0 | 0.00 | 0.01 | 0.01 | 85 | 1013.9 | |
| 20260508120548 | 62 | 0.0 | 1.0 | 0.00 | 0.01 | 0.01 | 85 | 1013.8 | |
| 20260508115548 | 61 | 0.0 | 1.0 | 0.00 | 0.01 | 0.01 | 85 | 1014.1 | |
| 20260508114548 | 61 | 135 | 1.0 | 3.0 | 0.00 | 0.01 | 0.01 | 86 | 1013.9 |
| 20260508113548 | 61 | 135 | 1.0 | 3.0 | 0.00 | 0.01 | 0.01 | 86 | 1014.0 |
| 20260508112548 | 61 | 135 | 3.0 | 5.0 | 0.00 | 0.01 | 0.01 | 86 | 1013.9 |
| 20260508111608 | 61 | 113 | 3.0 | 5.0 | 0.00 | 0.01 | 0.01 | 86 | 1013.9 |
| 20260508110548 | 62 | 0.0 | 1.0 | 0.00 | 0.01 | 0.01 | 86 | 1014.4 | |
| 20260508105548 | 61 | 113 | 1.0 | 2.0 | 0.00 | 0.01 | 0.01 | 87 | 1014.7 |
| 20260508104548 | 61 | 0.0 | 0.0 | 0.00 | 0.01 | 0.01 | 88 | 1014.0 | |
| 20260508103548 | 61 | 0.0 | 0.0 | 0.00 | 0.01 | 0.01 | 88 | 1013.5 | |
| 20260508102548 | 61 | 0.0 | 0.0 | 0.00 | 0.01 | 0.01 | 87 | 1013.1 | |
| 20260508101608 | 61 | 0.0 | 0.0 | 0.00 | 0.01 | 0.01 | 87 | 1013.2 | |
| 20260508100548 | 61 | 135 | 1.0 | 3.0 | 0.00 | 0.01 | 0.01 | 87 | 1013.0 |
| 20260508095548 | 61 | 135 | 1.0 | 2.0 | 0.00 | 0.01 | 0.01 | 87 | 1013.2 |
| 20260508094548 | 61 | 135 | 1.0 | 2.0 | 0.00 | 0.01 | 0.01 | 87 | 1013.1 |
| 20260508093548 | 61 | 0.0 | 0.0 | 0.00 | 0.01 | 0.01 | 87 | 1013.4 | |
| 20260508092548 | 62 | 0.0 | 0.0 | 0.00 | 0.01 | 0.01 | 87 | 1013.5 | |
| 20260508091549 | 62 | 0.0 | 0.0 | 0.00 | 0.01 | 0.01 | 87 | 1013.3 | |
| 20260508090548 | 62 | 0.0 | 1.0 | 0.00 | 0.01 | 0.01 | 86 | 1013.4 | |
| 20260508085548 | 62 | 0.0 | 2.0 | 0.01 | 0.01 | 0.01 | 86 | 1013.6 | |
| 20260508084608 | 62 | 135 | 1.0 | 2.0 | 0.01 | 0.01 | 0.01 | 86 | 1013.4 |
| 20260508083548 | 61 | 113 | 4.0 | 8.0 | 0.01 | 0.01 | 0.01 | 87 | 1013.1 |
| 20260508082548 | 61 | 0.0 | 0.0 | 0.01 | 0.01 | 0.01 | 86 | 1014.3 | |
| 20260508081548 | 61 | 0.0 | 0.0 | 0.01 | 0.01 | 0.01 | 85 | 1014.4 | |
| 20260508080608 | 62 | 0.0 | 0.0 | 0.01 | 0.01 | 0.01 | 84 | 1014.6 | |
| 20260508075548 | 62 | 0.0 | 0.0 | 0.00 | 0.00 | 0.00 | 81 | 1015.0 | |
| 20260508074548 | 62 | 0.0 | 0.0 | 0.00 | 0.00 | 0.00 | 80 | 1014.9 | |
| 20260508073548 | 62 | 0.0 | 0.0 | 0.00 | 0.00 | 0.00 | 80 | 1014.3 | |
| 20260508072548 | 62 | 0.0 | 0.0 | 0.00 | 0.00 | 0.00 | 80 | 1014.4 | |
| 20260508071548 | 62 | 0.0 | 0.0 | 0.00 | 0.00 | 0.00 | 80 | 1014.6 | |
| 20260508070548 | 62 | 0.0 | 0.0 | 0.00 | 0.00 | 0.00 | 80 | 1014.6 | |
| 20260508065548 | 62 | 0.0 | 0.0 | 0.00 | 0.00 | 0.00 | 80 | 1014.6 | |
| 20260508064548 | 62 | 0.0 | 0.0 | 0.00 | 0.00 | 0.00 | 80 | 1014.8 | |
| 20260508063548 | 62 | 0.0 | 0.0 | 0.00 | 0.00 | 0.00 | 81 | 1015.1 | |
| 20260508062548 | 62 | 0.0 | 0.0 | 0.00 | 0.00 | 0.00 | 81 | 1015.1 | |
| 20260508061548 | 61 | 0.0 | 0.0 | 0.00 | 0.00 | 0.00 | 81 | 1015.1 | |
| 20260508060548 | 62 | 0.0 | 0.0 | 0.00 | 0.00 | 0.00 | 81 | 1015.1 | |
| 20260508055548 | 61 | 0.0 | 0.0 | 0.00 | 0.00 | 0.00 | 81 | 1014.9 | |
| 20260508054548 | 62 | 0.0 | 0.0 | 0.00 | 0.00 | 0.00 | 81 | 1015.0 | |
| 20260508053548 | 61 | 0.0 | 0.0 | 0.00 | 0.00 | 0.00 | 81 | 1014.9 | |
| 20260508052548 | 61 | 0.0 | 0.0 | 0.00 | 0.00 | 0.00 | 81 | 1015.1 | |
| 20260508051548 | 62 | 0.0 | 0.0 | 0.00 | 0.00 | 0.00 | 80 | 1015.2 | |
| 20260508050548 | 61 | 0.0 | 0.0 | 0.00 | 0.00 | 0.00 | 81 | 1015.0 | |
| 20260508045549 | 61 | 0.0 | 0.0 | 0.00 | 0.00 | 0.00 | 80 | 1015.0 | |
| 20260508044549 | 62 | 0.0 | 0.0 | 0.00 | 0.00 | 0.00 | 79 | 1015.2 | |
| 20260508043549 | 62 | 0.0 | 0.0 | 0.00 | 0.00 | 0.00 | 78 | 1014.9 | |
| 20260508042549 | 62 | 0.0 | 0.0 | 0.00 | 0.00 | 0.00 | 77 | 1014.8 | |
| 20260508041549 | 63 | 0.0 | 0.0 | 0.00 | 0.00 | 0.00 | 75 | 1014.9 | |
| 20260508040549 | 63 | 0.0 | 0.0 | 0.00 | 0.00 | 0.00 | 75 | 1014.9 | |
| 20260508035549 | 63 | 0.0 | 0.0 | 0.00 | 0.00 | 0.00 | 74 | 1014.7 | |
| 20260508034549 | 63 | 0.0 | 0.0 | 0.00 | 0.00 | 0.00 | 74 | 1014.7 | |
| 20260508033649 | 64 | 0.0 | 0.0 | 0.00 | 0.00 | 0.00 | 73 | 1014.7 | |
| 20260508032549 | 64 | 0.0 | 0.0 | 0.00 | 0.00 | 0.00 | 73 | 1014.7 | |
| 20260508031629 | 64 | 0.0 | 0.0 | 0.00 | 0.00 | 0.00 | 73 | 1014.8 | |
| 20260508030549 | 65 | 0.0 | 0.0 | 0.00 | 0.00 | 0.00 | 73 | 1014.8 | |
| 20260508025609 | 65 | 0.0 | 0.0 | 0.00 | 0.00 | 0.00 | 71 | 1014.6 | |
| 20260508024549 | 65 | 0.0 | 0.0 | 0.00 | 0.00 | 0.00 | 70 | 1014.5 | |
| 20260508023549 | 66 | 0.0 | 2.0 | 0.00 | 0.00 | 0.00 | 69 | 1014.5 | |
| 20260508022549 | 66 | 0.0 | 2.0 | 0.00 | 0.00 | 0.00 | 69 | 1014.4 | |
| 20260508021549 | 66 | 0.0 | 1.0 | 0.00 | 0.00 | 0.00 | 67 | 1014.3 | |
| 20260508020549 | 66 | 135 | 1.0 | 3.0 | 0.00 | 0.00 | 0.00 | 68 | 1014.2 |
| 20260508015549 | 66 | 135 | 1.0 | 3.0 | 0.00 | 0.00 | 0.00 | 68 | 1014.0 |
| 20260508014549 | 67 | 135 | 2.0 | 4.0 | 0.00 | 0.00 | 0.00 | 66 | 1014.2 |
| 20260508013549 | 67 | 135 | 1.0 | 2.0 | 0.00 | 0.00 | 0.00 | 66 | 1014.2 |
| 20260508012609 | 67 | 135 | 1.0 | 2.0 | 0.00 | 0.00 | 0.00 | 65 | 1014.1 |
| 20260508011549 | 67 | 135 | 1.0 | 3.0 | 0.00 | 0.00 | 0.00 | 64 | 1014.0 |
| 20260508010549 | 68 | 158 | 1.0 | 4.0 | 0.00 | 0.00 | 0.00 | 63 | 1014.1 |
| 20260508005549 | 68 | 158 | 2.0 | 6.0 | 0.00 | 0.00 | 0.00 | 63 | 1014.0 |
| 20260508004549 | 68 | 180 | 2.0 | 6.0 | 0.00 | 0.00 | 0.00 | 63 | 1014.0 |
| 20260508003549 | 68 | 180 | 4.0 | 8.0 | 0.00 | 0.00 | 0.00 | 62 | 1014.0 |
| 20260508002629 | 68 | 180 | 2.0 | 6.0 | 0.00 | 0.00 | 0.00 | 63 | 1014.0 |
| 20260508001549 | 68 | 270 | 2.0 | 6.0 | 0.00 | 0.00 | 0.00 | 63 | 1014.0 |
| 20260508000549 | 69 | 158 | 3.0 | 6.0 | 0.00 | 0.00 | 0.00 | 63 | 1014.1 |
| 20260507235549 | 69 | 158 | 4.0 | 8.0 | 0.00 | 0.00 | 0.00 | 62 | 1014.1 |
| 20260507234549 | 69 | 180 | 3.0 | 8.0 | 0.00 | 0.00 | 0.00 | 63 | 1014.1 |
| 20260507233549 | 69 | 135 | 5.0 | 12.0 | 0.00 | 0.00 | 0.00 | 62 | 1014.1 |
| 20260507232549 | 70 | 180 | 4.0 | 9.0 | 0.00 | 0.00 | 0.00 | 62 | 1014.0 |
| 20260507231609 | 71 | 180 | 4.0 | 9.0 | 0.00 | 0.00 | 0.00 | 61 | 1014.2 |
| 20260507230549 | 72 | 135 | 1.0 | 2.0 | 0.00 | 0.00 | 0.00 | 53 | 1014.1 |
| 20260507225549 | 73 | 113 | 2.0 | 6.0 | 0.00 | 0.00 | 0.00 | 52 | 1014.1 |
| 20260507224549 | 73 | 113 | 2.0 | 7.0 | 0.00 | 0.00 | 0.00 | 52 | 1014.2 |
| 20260507223549 | 73 | 135 | 1.0 | 3.0 | 0.00 | 0.00 | 0.00 | 51 | 1014.4 |
| 20260507222549 | 73 | 113 | 2.0 | 6.0 | 0.00 | 0.00 | 0.00 | 53 | 1014.4 |
| 20260507221549 | 73 | 113 | 1.0 | 4.0 | 0.00 | 0.00 | 0.00 | 53 | 1014.4 |
| 20260507220549 | 74 | 113 | 2.0 | 7.0 | 0.00 | 0.00 | 0.00 | 52 | 1014.6 |
| 20260507215549 | 74 | 113 | 1.0 | 3.0 | 0.00 | 0.00 | 0.00 | 51 | 1014.5 |
| 20260507214549 | 74 | 113 | 1.0 | 4.0 | 0.00 | 0.00 | 0.00 | 52 | 1014.8 |